Regional Weather Roundup
Issued by NWS Little Rock, AR

Home | Current Version | Previous Version | Text Only | Print | Product List | Glossary Off
Versions: 1 2 3 4 5 6 7 8 9 10 11 12 13 14 15 16 17 18 19 20 21 22 23 24 25 26 27 28 29 30 31

000
ASUS44 KLZK 222005
RWRLZK

WEATHER ROUNDUP FOR ARKANSAS
NATIONAL WEATHER SERVICE LITTLE ROCK AR
300 PM CDT WED MAR 22 2017

NOTE: "FAIR" INDICATES FEW OR NO CLOUDS BELOW 12,000 FEET WITH NO
SIGNIFICANT WEATHER AND/OR OBSTRUCTIONS TO VISIBILITY.

ARZ001-003-010-029-222100-
NORTHWEST ARKANSAS

CITY           SKY/WX    TMP DP  RH WIND       PRES   REMARKS
FAYETTEVILLE   CLOUDY    59  44  57 E8        30.20F
FORT SMITH     CLOUDY    61  41  47 E20       30.19F
HARRISON       CLOUDY    52  38  58 SE9       30.27F
BENTONVILLE    CLOUDY    57  39  51 E15       30.21F
ROGERS         CLOUDY    56  39  53 E14       30.22F
SILOAM SPGS    CLOUDY    57  39  51 E8G16     30.20F
HIGHFILL       CLOUDY    56  41  57 E13       30.20F
SPRINGDALE     CLOUDY    55  41  58 E12       30.23F
$$

ARZ004-005-016-222100-
NORTH CENTRAL ARKANSAS

CITY           SKY/WX    TMP DP  RH WIND       PRES   REMARKS
BATESVILLE     CLOUDY    57  39  51 E13       30.30S
FLIPPIN        CLOUDY    55  34  44 SE6       30.26F
MTN HOME       CLOUDY    57  34  41 SE8       30.27F
$$

ARZ040-041-222100-
WEST CENTRAL ARKANSAS

CITY           SKY/WX    TMP DP  RH WIND       PRES   REMARKS
MENA           PTSUNNY   72  52  49 NE8       30.17S
MOUNT IDA      MOSUNNY   67  47  48 VRB7      30.17F
$$

ARZ009-017-025-026-028-222100-
NORTHEAST ARKANSAS

CITY           SKY/WX    TMP DP  RH WIND       PRES   REMARKS
CORNING        FAIR      57  34  41 E17       30.32F
JONESBORO      SUNNY     56  38  50 NE17G23   30.29F
NEWPORT        SUNNY     58  42  55 NE16      30.29F
WALNUT RIDGE   SUNNY     55  37  50 NE17G23   30.31F
BLYTHEVILLE    SUNNY     58  36  43 NE18      30.29F
$$

ARZ022-023-033-042-044-222100-
CENTRAL ARKANSAS

CITY           SKY/WX    TMP DP  RH WIND       PRES   REMARKS
LITTLE ROCK    MOSUNNY   62  45  53 E14       30.25F
N LITTLE ROCK    N/A     62  46  55 E9G17     30.24F
CONWAY           N/A     63  43  48 E15       30.24S
SEARCY         CLOUDY    59  45  59 E15       30.28F
HOT SPRINGS    SUNNY     64  48  56 E10       30.21F
RUSSELLVILLE   CLOUDY    60  43  53 MISG      30.24F
CLINTON        CLOUDY    59  41  51 E8        30.27S
$$

ARZ036-222100-
EAST ARKANSAS

CITY           SKY/WX    TMP DP  RH WIND       PRES   REMARKS
WEST MEMPHIS   SUNNY     62  43  49 NE13G21   30.25F
$$

ARZ050-053-066-070-073-222100-
SOUTHWEST ARKANSAS

CITY           SKY/WX    TMP DP  RH WIND       PRES   REMARKS
ARKADELPHIA    FAIR      66  51  58 E10       30.20F
CAMDEN         SUNNY     73  48  40 NE3       30.17F
TEXARKANA      SUNNY     73  56  54 MISG      30.15F
EL DORADO      SUNNY     73  53  49 CALM      30.16F
DE QUEEN       CLOUDY    71  55  56 SE9       30.15F
$$

ARZ056-057-069-222100-
SOUTHEAST ARKANSAS

CITY           SKY/WX    TMP DP  RH WIND       PRES   REMARKS
PINE BLUFF     SUNNY     64  48  56 NE8       30.23F
STUTTGART      SUNNY     63  41  45 NE15      30.25F
MONTICELLO     SUNNY     66  49  54 NE9       30.20F

$$






USA.gov is the U.S. government's official web portal to all federal, state and local government web resources and services.